Volver al catálogo

CZ-6A DEB

ActivoPO
NORAD 60678·DEBRIS·🇨🇳 China

Lanzado Aug 6, 2024 desde Taiyuan Satellite Launch Center

Loading…

Próximos Pases (próximas 24 horas)

TLE

ActualizadoSource: Space-Track

Época: Sep 14, 2026, 10:37 UTC

1 60678U 24140CF  26257.44302429  .00000256  00000-0  69439-4 0  9996
2 60678  88.9040 252.5159 0073171  11.5389 348.7469 14.43034729110496

Sigue CZ-6A DEB en tiempo real con AllMySat

Download on the App Store